Tracking 35331 objects as of 16-Sep-2026
HD Live streaming from Space Station
objects crossing your sky now

EDUSAT

Track EDUSAT now!
10-day predictions
EDUSAT is classified as:


NORAD ID: 37788
Int'l Code: 2011-044A
Launch date: August 17, 2011
Source: Italy (IT)
Launch site: Orenburg, Russia (OREN)

EduSat is a microsatellite built by the University of Rome.
Your satellite tracking list
Your tracking list is empty




NASA's NSSDC Master Catalog

Two Line Element Set (TLE):
1 37788U 11044A   26258.97461899  .00000564  00000-0  87957-4 0  9994
2 37788  98.2571 158.7322 0033948 188.4649 236.0344 14.76656868809929
Source of the keplerian elements: AFSPC